Wind_Speed
38 37 35 33 32 31 30 29 28 27 26 26 26 26 26 26 25 25 25 25 25 25 25 25 25 25 25 25 26 26 26 27 28 29 28 28 29 29 29 29 29 29 29
39 38 37 35 34 33 32 31 30 29 29 28 28 27 27 27 27 27 27 26 27 27 27 27 27 27 27 28 27 28 28 29 30 30 30 30 30 31 31 30 30 30 30
41 40 39 38 36 35 34 33 33 32 31 30 30 29 29 29 29 29 28 28 28 28 28 29 29 29 29 29 29 30 30 30 31 31 31 31 31 32 32 32 31 31 32
42 42 41 39 39 38 37 35 35 34 33 32 31 31 31 31 31 30 30 30 30 30 31 31 31 32 32 31 31 32 32 32 32 32 32 32 33 33 33 33 33 33 34
45 44 42 41 40 39 38 37 37 36 35 34 34 34 33 33 32 32 32 32 32 33 33 33 34 34 34 33 33 33 34 34 34 34 34 34 34 34 34 34 35 35 37
46 45 44 42 41 40 39 39 38 37 37 36 36 35 35 34 34 34 34 35 35 35 35 35 35 35 35 35 35 35 35 35 35 35 35 35 35 35 35 35 37 38 39
46 45 43 42 42 41 40 40 39 38 38 38 39 39 38 37 37 37 37 37 37 37 37 37 37 37 37 37 37 37 37 37 37 36 36 36 36 36 36 37 38 40 41
47 45 45 44 43 43 43 42 41 41 41 41 42 42 41 40 39 39 39 38 39 39 38 38 38 38 39 39 39 38 37 37 37 37 37 37 37 38 38 40 41 42 43
48 46 45 46 46 45 45 44 43 43 42 43 44 44 42 41 41 40 40 40 41 41 41 40 40 40 40 40 39 38 38 38 38 38 39 39 39 40 40 41 42 43 44
48 47 46 46 47 47 46 46 45 45 45 45 46 45 44 43 43 43 42 43 43 43 43 43 42 41 41 40 40 40 40 40 40 41 41 41 42 42 43 43 44 45 46
48 47 46 46 47 46 47 46 45 46 47 47 47 46 45 46 46 46 46 46 46 46 46 45 44 43 42 42 42 42 42 42 42 43 43 43 44 44 45 45 45 46 46
47 48 47 47 47 47 46 46 45 45 46 46 45 46 46 47 47 47 48 48 48 48 47 46 45 45 45 45 45 45 45 45 46 46 46 46 46 46 46 46 46 47 47
45 47 46 47 47 47 47 47 46 46 45 45 46 47 47 48 48 48 49 49 49 48 48 48 47 48 48 48 47 47 48 48 48 48 47 47 47 47 47 47 47 48 48
43 44 45 46 47 47 46 45 46 47 47 48 48 48 49 50 50 49 49 49 49 49 49 49 49 48 48 49 49 49 49 49 49 49 48 48 47 47 47 47 47 47 48
41 43 42 44 45 45 45 45 46 47 47 48 49 50 50 51 51 51 51 52 52 52 50 50 50 50 50 50 50 50 50 49 48 48 48 48 48 47 47 47 47 47 47
38 41 42 42 45 47 48 47 48 47 47 48 50 52 52 52 52 53 53 53 53 53 51 50 51 52 52 51 50 50 49 48 48 48 48 47 47 46 47 47 47 47 46
34 37 38 40 41 43 43 44 44 45 46 48 50 52 52 52 53 53 54 54 53 53 53 52 52 52 51 51 50 49 47 47 48 48 47 47 47 46 46 47 46 46 45
33 34 35 36 37 39 41 42 42 43 45 46 47 48 49 51 53 53 52 52 52 51 52 52 51 51 52 52 51 49 47 47 47 48 48 48 47 45 45 45 45 44 43
33 34 35 35 37 38 39 40 41 42 43 45 46 47 48 51 51 50 51 51 51 52 53 52 51 52 53 53 50 47 46 46 47 47 47 46 44 44 44 45 44 43 42
33 35 37 37 38 39 40 41 42 43 44 46 46 47 48 50 51 51 51 51 52 53 53 52 52 51 50 51 49 49 47 46 47 48 47 46 44 44 43 43 42 42 42
34 36 38 39 40 40 42 42 43 44 45 46 47 48 48 49 50 50 50 51 52 52 52 51 49 49 48 48 50 50 48 47 46 46 45 45 43 42 42 42 42 42 42
34 35 37 39 41 43 44 45 45 45 46 46 46 47 47 47 47 48 49 50 50 50 49 48 47 48 47 47 48 49 48 47 46 45 44 43 43 42 42 42 41 41 40
34 35 37 38 40 42 43 45 46 46 47 47 47 47 47 46 47 47 47 47 48 47 47 46 47 47 47 47 48 48 48 47 45 44 44 43 43 42 42 41 40 40 39
34 35 37 38 39 40 41 42 43 44 46 46 46 47 46 45 45 45 45 46 45 45 45 46 45 46 47 48 47 47 47 47 45 44 43 42 43 42 41 41 39 39 39
35 36 38 38 39 40 41 41 41 43 44 45 44 44 44 44 44 45 45 46 46 45 45 46 46 46 46 47 47 46 45 45 44 43 43 42 41 41 41 40 38 38 38
38 39 39 39 39 41 41 42 43 44 44 45 44 44 44 43 43 44 44 44 44 44 44 44 45 44 44 45 44 44 44 44 43 42 41 40 40 40 39 39 38 38 38
Wind_Direction
237 239 240 241 242 244 246 248 251 252 254 255 255 256 258 259 260 261 263 265 267 269 272 274 276 279 282 284 286 288 291 294 297 298 298 299 300 302 305 306 307 308 308
237 238 239 241 243 245 246 248 250 252 253 255 256 257 258 259 261 261 263 266 268 270 272 274 276 280 282 284 286 288 290 293 296 297 297 298 299 301 303 304 305 306 306
236 239 240 240 243 245 247 249 250 251 253 254 256 258 258 259 261 262 264 266 268 270 272 275 277 280 282 283 285 287 290 292 294 294 295 296 297 299 301 302 302 303 304
236 239 240 241 242 245 247 249 250 251 252 254 256 257 259 260 261 263 265 267 269 271 273 275 277 280 282 282 284 286 288 290 291 292 293 294 296 298 298 300 301 301 303
237 239 241 242 243 245 247 249 249 250 252 254 256 257 258 260 262 264 266 267 269 271 273 276 278 279 280 281 283 285 287 289 290 291 292 293 295 296 297 297 298 300 302
238 240 240 240 243 245 247 249 251 251 252 253 255 256 258 259 261 263 265 267 269 271 273 276 278 279 280 281 282 284 286 287 289 290 290 292 293 294 295 296 297 299 300
238 241 241 242 243 245 247 249 250 251 253 255 257 258 259 260 261 263 266 268 270 272 273 275 276 278 279 280 282 284 285 285 287 288 289 290 292 293 294 294 296 298 299
238 240 241 242 243 245 247 249 252 253 255 257 258 259 260 261 263 264 266 268 270 272 274 275 275 277 278 279 280 282 283 284 285 286 288 289 291 291 291 293 295 296 297
238 239 240 241 243 246 249 250 251 253 256 257 258 260 261 263 263 264 266 268 270 271 274 273 274 276 276 277 279 279 280 282 283 284 286 287 289 290 291 292 293 294 296
236 237 239 243 246 247 249 251 252 255 256 257 259 261 263 264 264 264 266 268 270 271 273 272 273 274 275 276 277 278 279 280 282 283 285 286 288 289 290 291 292 293 295
234 236 240 244 247 248 250 253 255 256 257 259 260 262 263 264 265 266 266 267 269 271 272 271 271 273 274 275 276 277 278 280 281 282 284 284 285 287 289 290 291 293 294
236 238 240 244 245 248 250 253 255 257 258 258 260 261 263 264 264 266 268 268 269 270 270 269 270 272 273 274 275 276 277 278 279 280 282 283 283 285 288 288 290 291 293
237 238 240 244 246 248 251 253 255 257 258 259 261 262 263 264 265 267 268 269 269 269 268 269 270 272 273 274 275 275 276 277 278 279 280 281 282 284 287 288 289 291 292
237 240 242 245 248 250 251 253 256 257 258 259 260 261 262 263 265 267 269 269 270 271 271 270 271 273 274 275 275 275 277 277 277 278 279 280 281 283 285 287 288 289 291
240 242 245 248 248 250 252 255 257 259 259 259 261 262 262 264 265 267 269 270 272 273 273 272 271 273 273 274 274 275 275 277 276 277 277 278 280 281 282 284 286 288 290
245 246 247 248 252 254 256 257 258 258 260 261 262 263 264 264 265 267 269 271 273 274 274 273 273 273 273 272 273 274 274 275 275 275 277 278 279 279 281 284 285 287 290
251 249 250 253 254 256 259 261 259 259 262 264 266 266 265 266 266 267 269 270 271 273 274 274 273 272 272 272 273 274 274 275 274 275 275 276 277 279 281 283 285 288 289
257 255 256 259 260 261 261 261 260 262 263 264 266 266 266 265 265 267 269 270 271 272 272 273 273 271 270 270 271 273 272 273 273 274 274 276 278 279 281 283 285 286 288
260 258 258 260 262 262 261 261 261 263 264 265 266 267 267 267 267 268 269 270 270 271 271 270 271 272 270 268 268 269 271 272 273 273 275 278 279 280 281 282 285 286 288
261 259 260 261 262 261 261 261 263 265 265 267 269 269 269 268 269 269 270 269 270 270 269 269 270 271 268 265 265 267 269 271 273 273 275 276 278 278 281 282 284 286 289
262 261 261 263 264 263 263 263 265 266 267 269 270 271 270 269 270 270 269 269 270 270 269 268 268 268 267 265 265 266 268 270 272 273 273 274 276 278 280 281 282 285 288
264 264 265 265 265 265 264 265 267 268 269 270 270 270 270 270 270 271 270 269 269 268 267 266 266 266 265 265 266 267 267 269 271 272 271 272 275 277 279 281 283 285 287
268 268 269 269 270 270 269 268 268 269 269 271 270 270 271 270 270 271 270 269 268 267 265 264 264 263 264 264 266 268 268 269 270 272 271 273 275 278 280 282 283 284 284
271 270 271 273 273 272 272 272 271 270 271 272 271 270 269 270 270 270 270 269 268 265 263 263 263 263 263 263 265 268 268 268 269 271 271 273 274 277 279 280 281 282 283
272 272 273 275 274 273 274 273 272 272 272 271 270 269 269 270 269 268 268 268 266 262 260 261 262 262 263 262 265 267 267 266 268 271 271 272 274 276 278 279 280 281 282
274 274 275 275 274 273 273 273 271 271 272 272 269 269 268 268 267 267 267 266 263 260 261 261 261 262 262 261 264 265 266 265 267 269 270 272 274 275 276 277 279 280 281
Height
5824 5828 5831 5833 5836 5838 5840 5841 5843 5844 5845 5846 5847 5848 5848 5848 5848 5849 5849 5848 5848 5848 5848 5847 5846 5845 5844 5843 5841 5840 5838 5836 5834 5832 5830 5828 5825 5823 5820 5818 5815 5812 5809
5818 5821 5824 5827 5830 5832 5834 5835 5837 5838 5840 5841 5841 5842 5843 5843 5843 5843 5843 5843 5843 5843 5842 5842 5841 5840 5839 5838 5836 5835 5833 5831 5829 5826 5824 5822 5820 5817 5815 5812 5810 5807 5803
5810 5814 5817 5820 5823 5825 5827 5829 5830 5832 5833 5835 5835 5836 5837 5837 5837 5837 5837 5837 5837 5837 5836 5836 5835 5834 5833 5832 5830 5829 5827 5825 5823 5821 5818 5816 5814 5812 5809 5807 5804 5801 5798
5803 5806 5810 5812 5815 5818 5820 5822 5824 5825 5827 5828 5829 5830 5830 5831 5831 5831 5831 5831 5831 5831 5830 5829 5829 5828 5827 5825 5824 5822 5820 5819 5817 5814 5812 5810 5808 5806 5803 5800 5798 5794 5791
5794 5798 5802 5805 5807 5810 5812 5815 5816 5818 5820 5821 5822 5823 5823 5824 5824 5825 5825 5825 5824 5824 5823 5822 5822 5821 5820 5818 5817 5815 5814 5812 5810 5808 5806 5804 5801 5799 5796 5794 5791 5788 5785
5786 5790 5794 5797 5800 5802 5805 5807 5809 5810 5812 5813 5814 5815 5816 5816 5817 5817 5817 5817 5817 5816 5816 5815 5814 5813 5812 5811 5809 5808 5806 5805 5803 5801 5799 5797 5794 5792 5789 5787 5784 5781 5777
5777 5781 5785 5789 5792 5794 5797 5799 5801 5802 5803 5804 5805 5807 5807 5808 5809 5809 5809 5809 5809 5808 5808 5807 5806 5805 5804 5803 5801 5800 5799 5797 5795 5793 5791 5789 5787 5784 5782 5779 5776 5773 5769
5768 5772 5777 5780 5783 5786 5788 5790 5792 5794 5795 5796 5797 5797 5798 5800 5800 5800 5800 5800 5800 5800 5799 5799 5798 5797 5796 5794 5793 5792 5790 5789 5787 5785 5783 5781 5779 5776 5774 5771 5768 5764 5761
5759 5763 5767 5771 5774 5776 5779 5781 5783 5785 5786 5787 5787 5788 5788 5790 5791 5791 5791 5791 5791 5790 5790 5789 5789 5788 5787 5785 5784 5783 5781 5780 5778 5776 5774 5772 5770 5767 5765 5762 5759 5755 5752
5749 5754 5758 5761 5764 5767 5769 5771 5773 5774 5775 5777 5777 5777 5778 5779 5779 5781 5782 5781 5780 5780 5780 5779 5779 5778 5777 5776 5775 5773 5772 5770 5768 5767 5765 5763 5761 5758 5755 5752 5749 5746 5743
5740 5744 5748 5751 5754 5757 5759 5761 5762 5763 5764 5766 5766 5767 5767 5767 5767 5768 5770 5771 5770 5769 5769 5768 5768 5767 5767 5765 5764 5763 5762 5760 5758 5757 5755 5753 5751 5748 5745 5743 5740 5737 5733
5730 5734 5738 5741 5743 5746 5748 5750 5751 5752 5753 5754 5755 5755 5756 5756 5756 5756 5756 5757 5758 5758 5757 5757 5756 5756 5755 5753 5752 5751 5751 5749 5748 5746 5744 5742 5740 5738 5735 5732 5729 5726 5723
5721 5724 5727 5730 5733 5735 5737 5738 5740 5740 5741 5742 5742 5743 5743 5744 5744 5744 5743 5744 5744 5745 5744 5744 5744 5743 5743 5742 5741 5740 5739 5737 5736 5735 5733 5731 5729 5727 5724 5722 5719 5716 5713
5712 5714 5717 5720 5722 5724 5725 5726 5727 5728 5729 5730 5730 5730 5731 5731 5731 5731 5731 5731 5730 5731 5732 5732 5731 5730 5730 5729 5728 5727 5726 5725 5724 5722 5721 5720 5718 5716 5713 5711 5708 5705 5702
5702 5704 5706 5708 5710 5712 5714 5715 5716 5716 5717 5717 5718 5718 5718 5719 5719 5719 5718 5718 5717 5717 5719 5719 5718 5717 5716 5716 5715 5714 5713 5712 5712 5710 5709 5708 5706 5704 5702 5700 5697 5694 5691
5692 5694 5696 5698 5699 5701 5702 5702 5703 5703 5704 5704 5705 5705 5705 5705 5705 5705 5705 5704 5703 5703 5703 5705 5704 5703 5702 5701 5701 5700 5700 5699 5699 5698 5697 5696 5695 5693 5691 5688 5686 5683 5681
5683 5685 5686 5687 5688 5689 5689 5689 5690 5690 5691 5691 5692 5691 5692 5691 5690 5691 5690 5690 5689 5688 5688 5689 5689 5688 5688 5688 5688 5688 5687 5687 5687 5686 5685 5684 5682 5680 5679 5677 5675 5673 5670
5674 5675 5676 5677 5677 5677 5677 5677 5678 5678 5678 5678 5678 5677 5677 5677 5676 5676 5676 5675 5675 5675 5674 5674 5674 5674 5674 5674 5675 5674 5675 5674 5674 5673 5673 5671 5670 5668 5667 5666 5664 5662 5660
5665 5665 5666 5666 5666 5666 5666 5667 5667 5666 5666 5665 5665 5664 5663 5662 5662 5661 5661 5661 5660 5660 5659 5659 5660 5660 5660 5660 5661 5662 5662 5662 5661 5661 5660 5659 5658 5657 5656 5654 5652 5651 5649
5655 5656 5656 5656 5655 5655 5655 5655 5654 5654 5653 5652 5651 5650 5649 5648 5647 5647 5646 5646 5646 5645 5645 5645 5646 5646 5646 5647 5648 5649 5649 5649 5648 5648 5648 5647 5646 5645 5644 5643 5641 5640 5638
5646 5646 5645 5645 5645 5644 5643 5642 5642 5641 5639 5638 5637 5636 5635 5634 5633 5632 5632 5632 5632 5631 5631 5631 5632 5632 5633 5634 5635 5635 5636 5636 5636 5636 5635 5635 5634 5633 5632 5631 5630 5629 5627
5636 5635 5634 5634 5633 5632 5631 5629 5628 5627 5626 5624 5623 5622 5621 5620 5619 5618 5618 5618 5617 5617 5618 5618 5619 5620 5621 5622 5622 5622 5623 5623 5624 5624 5623 5623 5623 5622 5621 5621 5619 5618 5616
5625 5624 5623 5622 5621 5619 5617 5616 5614 5613 5612 5610 5608 5607 5606 5605 5605 5604 5604 5604 5603 5603 5604 5606 5606 5607 5608 5609 5610 5610 5610 5611 5611 5612 5612 5612 5611 5611 5610 5610 5608 5607 5606
5613 5612 5611 5610 5608 5606 5604 5603 5601 5599 5597 5596 5595 5593 5593 5592 5591 5591 5590 5590 5590 5591 5592 5593 5594 5595 5595 5596 5597 5598 5598 5598 5599 5599 5600 5600 5600 5600 5599 5598 5597 5596 5595
5601 5600 5598 5597 5595 5593 5591 5589 5587 5585 5584 5582 5581 5580 5579 5579 5578 5577 5577 5577 5577 5578 5578 5579 5580 5581 5582 5583 5584 5585 5585 5586 5587 5587 5588 5588 5588 5588 5588 5587 5586 5586 5585
5588 5587 5585 5583 5581 5579 5577 5575 5573 5572 5570 5569 5568 5567 5566 5565 5565 5563 5563 5562 5563 5565 5566 5567 5568 5568 5569 5570 5571 5572 5573 5574 5575 5576 5576 5577 5577 5577 5577 5576 5576 5575 5575